[[{"header":{"parameterUnit":"m.s-1","parameterCategory":1,"la1":30.2991,"la2":30.254,"lo1":-89.0895,"lo2":-89.0444,"dy":0.0017,"dx":0.0017,"nx":28,"ny":28,"refTime":"2024-10-15T09:00:00:Z","depth":0,"parameterNumber":2,"parameterNumberName":"U-component_of_WINDS"},"data":[0,0,0,0,0,0,0,0,0,0,0,0,0,0,0,0,0,0,0,0,0,0,0,0,0,0,0,0,0,0,0,0,0,0,0,0,0,0,0,0,0,0,0,0,0,0,0,0,0,0,0,0,0,0,0,0,0,0,-4.5851,-4.5851,0,-4.5867,-4.5868,-4.5868,-4.5747,-4.5744,-4.574,-4.5737,-4.5754,-4.5757,-4.5761,0,0,0,0,0,0,0,0,0,0,0,0,0,-4.5715,-4.5718,-4.5851,-4.5851,-4.5852,-4.5867,-4.5868,-4.5868,-4.5748,-4.5744,-4.5739,-4.5736,-4.5753,-4.5757,-4.5761,0,0,0,0,0,0,0,0,0,0,0,0,0,-4.5757,-4.5719,-4.5851,-4.5794,-4.5789,-4.5867,-4.5868,-4.5868,-4.5749,-4.5743,-4.5738,-4.5734,-4.5751,-4.5757,-4.5762,-4.5897,0,0,-4.5778,-4.5781,0,0,0,0,0,0,0,0,-4.5755,-4.5762,-4.5802,-4.5798,-4.5792,-4.58,-4.5826,-4.5878,-4.575,-4.5764,-4.5737,-4.5731,-4.5773,-4.5777,-4.5791,-4.5898,-4.5898,-4.5779,-4.5782,-4.5785,-4.5786,0,0,0,0,0,0,0,-4.5752,-4.5761,-4.5857,-4.5803,-4.5797,-4.5767,-4.5767,-4.5835,-4.5797,-4.5762,-4.5753,-4.5757,-4.577,-4.5786,-4.579,-4.5899,-4.5779,-4.5784,-4.5787,-4.5789,-4.6116,-4.6121,0,0,0,0,0,0,-4.5757,-4.5759,-4.5857,-4.5858,-4.5761,-4.5773,-4.5773,-4.5803,-4.5796,-4.579,-4.5761,-4.5751,-4.5779,-4.5784,-4.5791,-4.5947,-4.5784,-4.579,-4.5793,-4.611,-4.6117,-4.6123,0,0,0,0,0,0,-4.5755,-4.5767,-4.5856,-4.5806,-4.5815,-4.5781,-4.5815,-4.5806,-4.5822,-4.5795,-4.5788,-4.5785,-4.5775,-4.5783,-4.5871,-4.5946,-4.5792,-4.5797,-4.6104,-4.6112,-4.612,-4.6263,0,0,0,0,0,0,-4.5751,-4.5767,-4.5818,-4.5808,-4.5819,-4.5938,-4.5819,-4.581,-4.5831,-4.5818,-4.5815,-4.581,-4.5772,-4.5864,-4.5877,-4.5951,-4.5801,-4.6097,-4.6108,-4.6117,-4.6252,-4.6275,-4.6296,0,0,0,0,0,-4.5747,-4.5858,-4.5821,-4.5834,-4.5882,-4.5942,-4.5948,-4.5902,-4.5838,-4.5889,-4.5872,-4.581,-4.5936,-4.5874,-4.5887,-4.5965,-4.6092,-4.6105,-4.6117,-4.6242,-4.6271,-4.6295,0,0,0,0,0,0,-4.5878,-4.5856,-4.5815,-4.5926,-4.5937,-4.5922,-4.5985,-4.5934,-4.5963,-4.595,-4.5891,-4.5892,-4.599,-4.5986,-4.5917,-4.6094,-4.6003,-4.6018,-4.6094,-4.6121,-4.6142,-4.6141,-4.5806,0,0,0,0,0,-4.592,-4.5971,-4.5948,-4.6049,-4.6056,-4.602,-4.6044,-4.6008,-4.6017,-4.6021,-4.601,-4.6021,-4.6062,-4.6091,-4.6128,-4.625,-4.6247,-4.631,-4.6332,-4.635,-4.6364,-4.6428,-4.6455,-4.6163,-4.6163,-4.6163,0,0,-4.6007,-4.6001,-4.6037,-4.6075,-4.6079,-4.6133,-4.6024,-4.6086,-4.6125,-4.603,-4.6112,-4.6105,-4.6113,-4.6219,-4.6265,-4.6218,-4.6444,-4.6366,-4.638,-4.6385,-4.6443,-4.6471,-4.6496,-4.6171,-4.617,-4.6169,0,0,-4.6193,-4.6194,-4.6277,-4.6283,-4.629,-4.6265,-4.6285,-4.6278,-4.6269,-4.6351,-4.628,-4.6325,-4.6399,-4.6407,-4.6421,-4.661,-4.6554,-4.6623,-4.6738,-4.6801,-4.6824,-4.6844,-4.6911,-4.6936,-4.6637,-4.6638,-4.6638,0,-4.63,-4.6379,-4.6327,-4.6393,-4.6411,-4.6327,-4.6411,-4.6419,-4.6438,-4.6453,-4.6401,-4.649,-4.649,-4.6596,-4.6642,-4.6656,-4.6677,-4.6624,-4.6825,-4.6845,-4.6863,-4.6926,-4.6951,-4.6646,-4.6645,-4.6644,-4.6644,0,-4.651,-4.6565,-4.6632,-4.6652,-4.6678,-4.6753,-4.6712,-4.6744,-4.6705,-4.6686,-4.677,-4.6766,-4.6801,-4.6823,-4.6786,-4.6924,-4.6895,-4.6835,-4.6742,-4.69,-4.6958,-4.6982,-4.6658,-4.6655,-4.6653,-4.6651,0,0,-4.6781,-4.677,-4.6796,-4.6803,-4.6804,-4.6846,-4.6917,-4.695,-4.6979,-4.6995,-4.7052,-4.7116,-4.706,-4.7076,-4.7038,-4.7094,-4.7243,-4.7026,-4.7025,-4.7067,-4.7394,-4.744,-4.7469,-4.7205,-4.721,-4.7213,-4.7394,0,-4.6962,-4.7082,-4.7037,-4.716,-4.721,-4.713,-4.7191,-4.7199,-4.7182,-4.7222,-4.7203,-4.7249,-4.7171,-4.718,-4.7231,-4.7214,-4.7308,-4.72,-4.7258,-4.7261,-4.7259,-4.7499,-4.7547,-4.7718,-4.7416,-4.742,-4.7423,0,-4.719,-4.7215,-4.7343,-4.7335,-4.7354,-4.741,-4.7436,-4.7476,-4.7482,-4.7465,-4.7483,-4.7434,-4.7502,-4.7409,-4.7502,-4.743,-4.745,-4.7445,-4.7451,-4.7455,-4.7352,-4.751,-4.7771,-4.7797,-4.7458,-4.7455,-4.7453,0,-4.7375,-4.744,-4.7524,-4.7534,-4.7526,-4.7567,-4.7566,-4.7567,-4.759,-4.7613,-4.7627,-4.7658,-4.7675,-4.77,-4.766,-4.7596,-4.7759,-4.7662,-4.7747,-4.7748,-4.7785,-4.7783,-4.8054,-4.7799,-4.7799,-4.7798,-4.7798,0,-4.7582,-4.7664,-4.7607,-4.766,-4.7748,-4.7695,-4.7784,-4.7774,-4.7776,-4.7824,-4.7757,-4.7804,-4.7748,-4.779,-4.7759,-4.784,-4.7848,-4.7837,-4.7828,-4.7843,-4.7845,-4.7856,-4.7844,-4.7805,-4.7803,-4.7802,-4.7801,0,-4.7803,-4.7769,-4.7856,-4.7841,-4.7839,-4.7905,-4.7892,-4.794,-4.7918,-4.798,-4.7992,-4.7958,-4.8003,-4.7965,-4.801,-4.7989,-4.8097,-4.8071,-4.8095,-4.8088,-4.8174,-4.8167,-4.8462,-4.8497,-4.822,-4.8223,-4.8225,0,-4.7938,-4.7999,-4.7991,-4.8018,-4.8021,-4.8067,-4.8089,-4.8039,-4.8065,-4.8076,-4.8122,-4.8162,-4.8191,-4.8267,-4.8246,-4.828,-4.8254,-4.8355,-4.8259,-4.8272,-4.8255,-4.8252,-4.8258,-4.8375,-4.8378,-4.8381,-4.8383,0,-4.8182,-4.8161,-4.8196,-4.8226,-4.8254,-4.8275,-4.829,-4.8317,-4.8265,-4.8298,-4.8343,-4.8366,-4.841,-4.8451,-4.8477,-4.8475,-4.8421,-4.8413,-4.8435,-4.8451,-4.8462,-4.8457,-4.8148,-4.8407,-4.8404,-4.8403,-4.8401,-4.84,-4.8364,-4.8413,-4.8415,-4.8456,-4.8462,-4.8478,-4.8521,-4.8505,-4.8541,-4.8574,-4.8542,-4.8597,-4.86,-4.863,-4.8634,-4.8676,-4.8634,-4.8665,-4.8673,-4.8682,-4.8694,-4.8456,-4.8681,-4.868,-4.868,-4.8679,-4.8678,0,-4.8603,-4.86,-4.8638,-4.8661,-4.8693,-4.8639,-4.8652,-4.8683,-4.8732,-4.874,-4.877,-4.8822,-4.886,-4.8842,-4.8875,-4.8912,-4.8888,-4.8923,-4.8919,-4.892,-4.873,-4.8708,-4.8941,-4.8941,-4.8941,-4.8941,-4.8941,-4.8941,-4.8731,-4.8813,-4.8792,-4.8876,-4.8871,-4.8925,-4.8937,-4.8951,-4.8957,-4.9017,-4.9049,-4.9036,-4.9034,-4.9066,-4.9099,-4.9092,-4.9107,-4.9151,-4.9136,-4.8959,-4.8933,-4.8908,-4.8887,-4.9155,-4.9155,-4.9322,-4.9323,-4.9324]},{"header":{"parameterUnit":"m.s-1","parameterCategory":1,"la1":30.2991,"la2":30.254,"lo1":-89.0895,"lo2":-89.0444,"dy":0.0017,"dx":0.0017,"nx":28,"ny":28,"refTime":"2024-10-15T09:00:00:Z","depth":0,"parameterNumber":3,"parameterNumberName":"V-component_of_WINDS"},"data":[0,0,0,0,0,0,0,0,0,0,0,0,0,0,0,0,0,0,0,0,0,0,0,0,0,0,0,0,0,0,0,0,0,0,0,0,0,0,0,0,0,0,0,0,0,0,0,0,0,0,0,0,0,0,0,0,0,0,-6.8922,-6.8923,0,-6.9027,-6.9028,-6.903,-6.8984,-6.8981,-6.8979,-6.8976,-6.9077,-6.9082,-6.9087,0,0,0,0,0,0,0,0,0,0,0,0,0,-6.8671,-6.8676,-6.8921,-6.8923,-6.8924,-6.9027,-6.9028,-6.903,-6.8984,-6.8981,-6.8978,-6.8975,-6.9075,-6.9081,-6.9087,0,0,0,0,0,0,0,0,0,0,0,0,0,-6.8779,-6.8678,-6.8921,-6.8914,-6.8914,-6.9027,-6.9029,-6.903,-6.8985,-6.8981,-6.8977,-6.8974,-6.9073,-6.9081,-6.9088,-6.9211,0,0,-6.9111,-6.9115,0,0,0,0,0,0,0,0,-6.8773,-6.8788,-6.8914,-6.8915,-6.8915,-6.8989,-6.8977,-6.9091,-6.8986,-6.8958,-6.8976,-6.8972,-6.905,-6.9059,-6.9087,-6.9216,-6.922,-6.9112,-6.9117,-6.912,-6.9122,0,0,0,0,0,0,0,-6.8765,-6.8783,-6.8963,-6.8916,-6.8917,-6.8903,-6.8914,-6.8998,-6.9024,-6.896,-6.8957,-6.8971,-6.905,-6.908,-6.9089,-6.9222,-6.9112,-6.9118,-6.9123,-6.9126,-6.9455,-6.9459,0,0,0,0,0,0,-6.8759,-6.8777,-6.896,-6.8966,-6.8833,-6.891,-6.8923,-6.8969,-6.9023,-6.9028,-6.8974,-6.8968,-6.9069,-6.9081,-6.9093,-6.9239,-6.912,-6.9127,-6.9131,-6.945,-6.9455,-6.946,0,0,0,0,0,0,-6.8754,-6.8776,-6.8955,-6.8871,-6.8893,-6.8919,-6.8971,-6.8973,-6.9003,-6.9033,-6.9037,-6.9001,-6.9067,-6.9082,-6.9182,-6.9242,-6.913,-6.9137,-6.9446,-6.9452,-6.9458,-6.9534,0,0,0,0,0,0,-6.8747,-6.8774,-6.8823,-6.8873,-6.8898,-6.9046,-6.8975,-6.8978,-6.9017,-6.9011,-6.906,-6.9064,-6.9065,-6.9171,-6.919,-6.925,-6.9143,-6.944,-6.9448,-6.9456,-6.9526,-6.9542,-6.9556,0,0,0,0,0,-6.8738,-6.8839,-6.8826,-6.8848,-6.896,-6.905,-6.9064,-6.9065,-6.9023,-6.9071,-6.909,-6.9062,-6.9233,-6.9182,-6.9202,-6.9266,-6.9436,-6.9446,-6.9455,-6.952,-6.9539,-6.9556,0,0,0,0,0,0,-6.8794,-6.8846,-6.8832,-6.8952,-6.8997,-6.9042,-6.9103,-6.9086,-6.9141,-6.9133,-6.9129,-6.914,-6.9244,-6.9265,-6.9207,-6.9387,-6.9328,-6.9342,-6.937,-6.9388,-6.9403,-6.9395,-6.9149,0,0,0,0,0,-6.8821,-6.8892,-6.8932,-6.9035,-6.9058,-6.9077,-6.9116,-6.9113,-6.9158,-6.9176,-6.9202,-6.9245,-6.9308,-6.9349,-6.9409,-6.9529,-6.9538,-6.9583,-6.9598,-6.961,-6.9621,-6.9684,-6.9704,-6.9491,-6.9491,-6.9491,0,0,-6.8876,-6.8913,-6.8958,-6.9047,-6.9081,-6.9152,-6.9093,-6.9171,-6.9222,-6.9187,-6.9284,-6.9305,-6.9352,-6.9462,-6.9512,-6.9483,-6.9683,-6.9622,-6.9631,-6.9636,-6.9696,-6.9716,-6.9734,-6.9497,-6.9496,-6.9495,0,0,-6.9013,-6.9049,-6.9138,-6.9174,-6.9228,-6.924,-6.9261,-6.9308,-6.9321,-6.9419,-6.9393,-6.9453,-6.9563,-6.9597,-6.9628,-6.9778,-6.9753,-6.9797,-6.9873,-6.9935,-6.9952,-6.9966,-7.0018,-7.0036,-6.9809,-6.9809,-6.9809,0,-6.9074,-6.9183,-6.9185,-6.9265,-6.9304,-6.9278,-6.9366,-6.94,-6.9469,-6.9495,-6.9462,-6.9598,-6.9628,-6.9745,-6.9782,-6.9809,-6.9831,-6.9791,-6.995,-6.9964,-6.9978,-7.0027,-7.0047,-6.9814,-6.9813,-6.9813,-6.9812,0,-6.9254,-6.933,-6.9394,-6.9465,-6.9511,-6.9595,-6.9607,-6.9653,-6.9646,-6.966,-6.9758,-6.9793,-6.9859,-6.9886,-6.9879,-7.0002,-6.9982,-6.995,-6.989,-7.0003,-7.0049,-7.0068,-6.9821,-6.9819,-6.9817,-6.9816,0,0,-6.9428,-6.95,-6.9523,-6.9554,-6.9611,-6.9668,-6.9749,-6.9816,-6.9855,-6.9903,-6.9969,-7.0062,-7.0032,-7.0068,-7.0064,-7.0119,-7.0232,-7.0079,-7.008,-7.0105,-7.0367,-7.039,-7.0412,-7.0217,-7.0221,-7.0224,-7.0362,0,-6.9568,-6.9714,-6.9718,-6.985,-6.9918,-6.9894,-6.9964,-7.0005,-7.0021,-7.0078,-7.0094,-7.0159,-7.0116,-7.0137,-7.019,-7.0207,-7.0284,-7.0198,-7.0276,-7.0279,-7.0264,-7.0436,-7.0461,-7.0591,-7.0381,-7.0384,-7.0386,0,-6.9751,-6.9808,-6.9948,-6.9994,-7.0023,-7.0087,-7.0147,-7.0204,-7.0249,-7.0255,-7.0296,-7.0284,-7.0364,-7.0302,-7.041,-7.0351,-7.0383,-7.0396,-7.0401,-7.0407,-7.0338,-7.0445,-7.0632,-7.0651,-7.0414,-7.0412,-7.041,0,-6.9862,-6.9973,-7.0071,-7.0098,-7.0156,-7.02,-7.0226,-7.0267,-7.0307,-7.0359,-7.0383,-7.0443,-7.0476,-7.0521,-7.0524,-7.048,-7.0632,-7.0572,-7.0638,-7.0638,-7.067,-7.0668,-7.0863,-7.0694,-7.0693,-7.0693,-7.0693,0,-7.0017,-7.0103,-7.0122,-7.0182,-7.0276,-7.0279,-7.0371,-7.0392,-7.0429,-7.049,-7.0472,-7.0529,-7.0531,-7.0589,-7.0592,-7.068,-7.0694,-7.07,-7.07,-7.0701,-7.07,-7.0721,-7.0711,-7.0698,-7.0697,-7.0696,-7.0695,0,-7.0157,-7.0173,-7.0278,-7.0324,-7.0337,-7.0405,-7.0442,-7.0498,-7.0511,-7.0589,-7.0607,-7.0627,-7.0694,-7.0703,-7.078,-7.0782,-7.0887,-7.0878,-7.0873,-7.0871,-7.0936,-7.0929,-7.115,-7.1178,-7.0992,-7.0994,-7.0995,0,-7.0254,-7.032,-7.0374,-7.0415,-7.0443,-7.0509,-7.055,-7.0554,-7.0597,-7.0652,-7.07,-7.0766,-7.0819,-7.0926,-7.0945,-7.1004,-7.0995,-7.1068,-7.1003,-7.1002,-7.0993,-7.0989,-7.0994,-7.108,-7.1082,-7.1084,-7.1085,0,-7.0424,-7.0429,-7.049,-7.0554,-7.0603,-7.0653,-7.0699,-7.0733,-7.0743,-7.0791,-7.0861,-7.0902,-7.0981,-7.1045,-7.1103,-7.1125,-7.1106,-7.1106,-7.1124,-7.1125,-7.1119,-7.1121,-7.0905,-7.11,-7.1099,-7.1098,-7.1097,-7.1096,-7.0544,-7.0601,-7.0648,-7.0715,-7.0752,-7.0795,-7.085,-7.0871,-7.093,-7.0997,-7.0995,-7.1071,-7.1112,-7.1188,-7.1214,-7.1271,-7.1247,-7.1273,-7.128,-7.1286,-7.1292,-7.1111,-7.1282,-7.1282,-7.1281,-7.1281,-7.1281,0,-7.0711,-7.0741,-7.0803,-7.087,-7.0923,-7.0903,-7.0953,-7.0998,-7.1066,-7.1107,-7.116,-7.1238,-7.13,-7.1325,-7.1385,-7.1426,-7.1418,-7.1441,-7.1437,-7.1442,-7.1311,-7.1289,-7.1446,-7.1446,-7.1446,-7.1446,-7.1446,-7.1446,-7.0805,-7.0899,-7.091,-7.1021,-7.1048,-7.1125,-7.1155,-7.1194,-7.1227,-7.1317,-7.1369,-7.1386,-7.142,-7.1482,-7.1537,-7.1542,-7.1564,-7.1591,-7.1592,-7.1469,-7.1452,-7.1436,-7.1415,-7.1596,-7.1596,-7.1718,-7.1719,-7.172]}]]